This is the latest recevied weather packets stored in our database for station/object N3AVN. If no packets are shown the sender has not sent any weather packets the latest 10 day(s).
| Time | Temp. | Humidity | Pressure | Rain* | Wind** | Luminosity | Snow |
|---|---|---|---|---|---|---|---|
| 1777650079 | 15° C | 41% | 1009.8 hPa | 0 mm | - | 711 W/m² | - |
| 1777649776 | 15° C | 45% | 1009.7 hPa | 0 mm | - | 691 W/m² | - |
| 1777649473 | 15.56° C | 41% | 1009.9 hPa | 0 mm | - | 138 W/m² | - |
| 1777649170 | 15.56° C | 44% | 1010 hPa | 0 mm | - | 713 W/m² | - |
| 1777648867 | 15.56° C | 43% | 1009.7 hPa | 0 mm | - | 382 W/m² | - |
| 1777648261 | 14.44° C | 45% | 1009.9 hPa | 0 mm | - | 696 W/m² | - |
| 1777647955 | 15° C | 43% | 1009.9 hPa | 0 mm | - | 768 W/m² | - |
| 1777647653 | 15° C | 46% | 1010.2 hPa | 0 mm | - | 426 W/m² | - |
| 1777647349 | 15° C | 42% | 1010 hPa | 0 mm | - | 585 W/m² | - |
| 1777647047 | 14.44° C | 45% | 1010.2 hPa | 0 mm | - | 768 W/m² | - |
| 1777646743 | 13.89° C | 47% | 1010.1 hPa | 0 mm | - | 438 W/m² | - |
| 1777646438 | 13.89° C | 48% | 1010 hPa | 0 mm | - | 318 W/m² | - |
| 1777646135 | 13.89° C | 50% | 1009.9 hPa | 0 mm | - | 177 W/m² | - |
| 1777645832 | 13.33° C | 48% | 1010.1 hPa | 0 mm | - | 706 W/m² | - |
| 1777645529 | 14.44° C | 48% | 1010 hPa | 0 mm | - | 681 W/m² | - |
| 1777645225 | 13.89° C | 47% | 1009.9 hPa | 0 mm | - | 832 W/m² | - |
| 1777644921 | 12.78° C | 50% | 1010 hPa | 0 mm | - | 732 W/m² | - |
| 1777644619 | 12.22° C | 52% | 1010.1 hPa | 0 mm | - | 706 W/m² | - |
| 1777644315 | 12.22° C | 51% | 1010.2 hPa | 0 mm | - | 119 W/m² | - |
| 1777644011 | 12.78° C | 50% | 1010.2 hPa | 0 mm | - | 783 W/m² | - |
| 1777643702 | 13.33° C | 50% | 1010.2 hPa | 0 mm | - | 220 W/m² | - |
| 1777643400 | 13.89° C | 55% | 1010.3 hPa | 0 mm | - | 716 W/m² | - |
| 1777643096 | 12.78° C | 54% | 1010.4 hPa | 0 mm | - | 580 W/m² | - |
| 1777642793 | 12.22° C | 57% | 1010.4 hPa | 0 mm | - | 732 W/m² | - |
| 1777642489 | 12.22° C | 55% | 1010.1 hPa | 0 mm | - | 662 W/m² | - |
* Rain latest hour (hover to see other rain measurements)
** Current wind speed in m/s (hover to see current wind gust speed)